TimeCST,TemperatureF,Dew PointF,Humidity,Sea Level PressureIn,VisibilityMPH,Wind Direction,Wind SpeedMPH,Gust SpeedMPH,PrecipitationIn,Events,Conditions,WindDirDegrees,DateUTC
12:13 AM,21.2,17.6,86,29.70,10.0,WSW,8.1,-,N/A,Snow,Light Snow,250,2012-11-12 06:13:00
12:32 AM,21.2,17.6,86,29.70,7.0,West,5.8,-,N/A,Snow,Light Snow,260,2012-11-12 06:32:00
12:53 AM,21.2,15.8,80,29.70,10.0,WSW,9.2,-,N/A,Snow,Light Snow,250,2012-11-12 06:53:00
1:13 AM,21.2,15.8,80,29.70,10.0,WSW,11.5,16.1,N/A,,Overcast,250,2012-11-12 07:13:00
1:32 AM,21.2,15.8,80,29.70,10.0,WSW,10.4,18.4,N/A,,Overcast,250,2012-11-12 07:32:00
1:53 AM,21.2,15.8,80,29.70,10.0,WSW,9.2,-,N/A,,Overcast,240,2012-11-12 07:53:00
2:13 AM,21.2,15.8,80,29.70,7.0,WSW,8.1,-,N/A,Snow,Light Snow,240,2012-11-12 08:13:00
2:32 AM,21.2,15.8,80,29.70,7.0,SW,8.1,-,N/A,Snow,Light Snow,220,2012-11-12 08:32:00
2:53 AM,21.2,15.8,80,29.70,7.0,SW,9.2,-,N/A,Snow,Light Snow,220,2012-11-12 08:53:00
3:12 AM,21.2,17.6,86,29.69,5.0,SW,5.8,-,N/A,Snow,Light Snow,230,2012-11-12 09:12:00
3:33 AM,19.4,15.8,86,29.70,7.0,SW,8.1,-,N/A,Snow,Light Snow,220,2012-11-12 09:33:00
3:53 AM,19.4,15.8,86,29.70,7.0,SW,12.7,-,N/A,Snow,Light Snow,220,2012-11-12 09:53:00
4:12 AM,19.4,14.0,80,29.70,10.0,SW,10.4,-,N/A,,Overcast,230,2012-11-12 10:12:00
4:33 AM,19.4,14.0,80,29.71,7.0,SW,10.4,16.1,N/A,Snow,Light Snow,230,2012-11-12 10:33:00
4:53 AM,19.4,15.8,86,29.71,5.0,SW,8.1,16.1,N/A,Snow,Light Snow,220,2012-11-12 10:53:00
5:13 AM,19.4,14.0,80,29.71,10.0,SW,10.4,16.1,N/A,Snow,Light Snow,220,2012-11-12 11:13:00
5:33 AM,19.4,14.0,80,29.71,10.0,SW,8.1,-,N/A,Snow,Light Snow,220,2012-11-12 11:33:00
5:53 AM,19.4,14.0,80,29.71,7.0,SW,8.1,-,N/A,Snow,Light Snow,220,2012-11-12 11:53:00
6:12 AM,19.4,15.8,86,29.72,4.0,SW,8.1,-,N/A,Snow,Light Snow,220,2012-11-12 12:12:00
6:33 AM,19.4,15.8,86,29.72,3.0,SW,6.9,-,N/A,Snow,Light Snow,230,2012-11-12 12:33:00
6:53 AM,19.4,15.8,86,29.72,1.2,WSW,11.5,16.1,N/A,Snow,Snow,240,2012-11-12 12:53:00
7:12 AM,17.6,15.8,93,29.72,3.0,WSW,5.8,-,N/A,Snow,Light Snow,240,2012-11-12 13:12:00
7:33 AM,17.6,15.8,93,29.73,2.5,West,8.1,-,N/A,Snow,Light Snow,260,2012-11-12 13:33:00
7:52 AM,17.6,14.0,86,29.73,10.0,WSW,8.1,-,N/A,,Overcast,250,2012-11-12 13:52:00
8:13 AM,17.6,12.2,79,29.74,10.0,West,12.7,18.4,N/A,,Overcast,260,2012-11-12 14:13:00
8:32 AM,17.6,12.2,79,29.74,7.0,West,8.1,16.1,N/A,,Overcast,260,2012-11-12 14:32:00
8:53 AM,19.4,14.0,80,29.74,10.0,WSW,6.9,-,N/A,,Overcast,250,2012-11-12 14:53:00
9:13 AM,19.4,14.0,80,29.74,7.0,WSW,10.4,-,N/A,,Overcast,240,2012-11-12 15:13:00
9:32 AM,19.4,12.2,74,29.74,7.0,WSW,8.1,-,N/A,Snow,Light Snow,250,2012-11-12 15:32:00
9:53 AM,19.4,12.2,74,29.75,3.0,WSW,11.5,-,N/A,Snow,Light Snow,250,2012-11-12 15:53:00
10:13 AM,19.4,14.0,80,29.76,3.0,West,12.7,16.1,N/A,Snow,Light Snow,260,2012-11-12 16:13:00
10:32 AM,19.4,14.0,80,29.76,1.8,WSW,6.9,18.4,N/A,Snow,Light Snow,250,2012-11-12 16:32:00
10:53 AM,19.4,15.8,86,29.77,2.0,WSW,10.4,-,N/A,Snow,Light Snow,250,2012-11-12 16:53:00
11:13 AM,19.4,15.8,86,29.76,1.5,West,10.4,16.1,N/A,Snow,Light Snow,260,2012-11-12 17:13:00
11:32 AM,19.4,15.8,86,29.76,2.0,West,9.2,16.1,N/A,Snow,Light Snow,270,2012-11-12 17:32:00
11:53 AM,21.2,15.8,80,29.77,2.0,West,10.4,16.1,N/A,Snow,Light Snow,270,2012-11-12 17:53:00
12:13 PM,21.2,15.8,80,29.77,2.0,WSW,10.4,16.1,N/A,Snow,Light Snow,250,2012-11-12 18:13:00
12:33 PM,21.2,15.8,80,29.77,1.8,West,9.2,16.1,N/A,Snow,Light Snow,260,2012-11-12 18:33:00
12:53 PM,21.2,17.6,86,29.78,1.5,West,5.8,16.1,N/A,Snow,Light Snow,270,2012-11-12 18:53:00
1:13 PM,21.2,17.6,86,29.78,2.0,West,9.2,-,N/A,Snow,Light Snow,270,2012-11-12 19:13:00
1:32 PM,21.2,17.6,86,29.79,2.0,West,9.2,-,N/A,Snow,Light Snow,270,2012-11-12 19:32:00
1:53 PM,21.2,17.6,86,29.79,2.5,West,10.4,16.1,N/A,Snow,Light Snow,270,2012-11-12 19:53:00
2:13 PM,23.0,17.6,80,29.80,2.5,West,8.1,-,N/A,Snow,Light Snow,260,2012-11-12 20:13:00
2:32 PM,23.0,19.4,86,29.81,1.5,West,9.2,-,N/A,Snow,Light Snow,280,2012-11-12 20:32:00
2:53 PM,23.0,17.6,80,29.82,3.0,West,13.8,18.4,N/A,Snow,Light Snow,270,2012-11-12 20:53:00
3:13 PM,23.0,19.4,86,29.83,2.5,West,11.5,-,N/A,Snow,Light Snow,270,2012-11-12 21:13:00
3:33 PM,23.0,19.4,86,29.84,3.0,West,11.5,16.1,N/A,Snow,Light Snow,260,2012-11-12 21:33:00
3:53 PM,23.0,19.4,86,29.85,4.0,West,11.5,17.3,N/A,Snow,Light Snow,270,2012-11-12 21:53:00
4:12 PM,23.0,19.4,86,29.86,3.0,West,12.7,20.7,N/A,Snow,Light Snow,260,2012-11-12 22:12:00
4:33 PM,23.0,19.4,86,29.87,5.0,West,13.8,18.4,N/A,Snow,Light Snow,270,2012-11-12 22:33:00
4:53 PM,23.0,19.4,86,29.88,10.0,West,10.4,17.3,N/A,Snow,Light Snow,270,2012-11-12 22:53:00
5:12 PM,23.0,19.4,86,29.89,7.0,West,10.4,-,N/A,Snow,Light Snow,280,2012-11-12 23:12:00
5:33 PM,23.0,19.4,86,29.91,7.0,West,13.8,19.6,N/A,Snow,Light Snow,270,2012-11-12 23:33:00
5:53 PM,24.8,19.4,80,29.92,7.0,West,12.7,21.9,N/A,Snow,Light Snow,270,2012-11-12 23:53:00
6:12 PM,24.8,19.4,80,29.93,7.0,West,10.4,19.6,N/A,Snow,Light Snow,270,2012-11-13 00:12:00
6:33 PM,24.8,19.4,80,29.94,7.0,West,11.5,18.4,N/A,Snow,Light Snow,270,2012-11-13 00:33:00
6:53 PM,24.8,19.4,80,29.95,5.0,West,12.7,18.4,N/A,Snow,Light Snow,280,2012-11-13 00:53:00
7:13 PM,24.8,19.4,80,29.95,5.0,West,10.4,17.3,N/A,Snow,Light Snow,280,2012-11-13 01:13:00
7:32 PM,23.0,21.2,93,29.96,7.0,West,12.7,24.2,N/A,Snow,Light Snow,280,2012-11-13 01:32:00
7:53 PM,23.0,21.2,93,29.98,10.0,West,8.1,17.3,N/A,,Overcast,280,2012-11-13 01:53:00
8:13 PM,23.0,21.2,93,29.99,7.0,West,9.2,20.7,N/A,,Overcast,280,2012-11-13 02:13:00
8:32 PM,23.0,21.2,93,30.00,5.0,West,11.5,17.3,N/A,,Overcast,280,2012-11-13 02:32:00
8:53 PM,23.0,21.2,93,30.02,5.0,West,12.7,17.3,N/A,,Overcast,270,2012-11-13 02:53:00
9:13 PM,23.0,21.2,93,30.02,10.0,WNW,10.4,19.6,N/A,,Overcast,290,2012-11-13 03:13:00
9:32 PM,23.0,21.2,93,30.03,10.0,West,10.4,16.1,N/A,,Overcast,270,2012-11-13 03:32:00
9:53 PM,23.0,21.2,93,30.04,5.0,West,9.2,17.3,N/A,,Overcast,280,2012-11-13 03:53:00
10:13 PM,21.2,19.4,93,30.05,10.0,West,13.8,17.3,N/A,,Overcast,270,2012-11-13 04:13:00
10:32 PM,21.2,19.4,93,30.06,10.0,West,10.4,16.1,N/A,,Overcast,280,2012-11-13 04:32:00
10:53 PM,21.2,19.4,93,30.07,7.0,West,12.7,17.3,N/A,,Overcast,270,2012-11-13 04:53:00
11:13 PM,21.2,19.4,93,30.08,10.0,West,10.4,16.1,N/A,,Overcast,280,2012-11-13 05:13:00
11:32 PM,21.2,17.6,86,30.09,10.0,West,10.4,18.4,N/A,,Overcast,270,2012-11-13 05:32:00
11:53 PM,21.2,17.6,86,30.10,10.0,West,6.9,18.4,N/A,,Overcast,270,2012-11-13 05:53:00